Location: Cheyres
(46.8153°N, 6.7877°E)
Time: 13:52:21
(UTC+00:00)

Cosmos 990 Rocket - Pass Details

Date: 26 September 2021
Orbit: 746 x 769 km, 74.0° (Epoch: 24 October)

Event Time Altitude Azimuth Distance (km) Brightness Sun altitude
Rises 03:48:58 0° 348° (NNW) 3,238 7.3 -17.0°
Reaches altitude 10° 03:52:20 10° 10° (N) 2,312 6.8 -16.5°
Maximum altitude 03:55:29 16° 47° (NE) 1,938 7.0 -16.0°
Drops below altitude 10° 03:58:37 10° 85° (E) 2,311 7.8 -15.4°
Sets 04:01:58 0° 107° (ESE) 3,236 8.3 -14.9°
